Regional Weather Roundup
Issued by NWS

Home | Current Version | Previous Version | Graphics & Text | Print | Product List | Glossary On
Versions: 1 2 3 4 5 6 7 8 9 10 11 12 13 14 15 16 17 18 19 20 21 22 23 24 25 26 27 28 29 30 31 32 33 34 35 36 37 38 39 40 41 42 43 44 45 46 47 48 49 50
328
ASUS45 KBOI 291610
RWRID

IDAHO REGIONAL WEATHER ROUNDUP
NATIONAL WEATHER SERVICE BOISE ID
1000 AM MDT FRI APR 29 2016

NOTE: "FAIR" INDICATES FEW OR NO CLOUDS BELOW 12000 FEET
WITH NO SIGNIFICANT WEATHER AND/OR OBSTRUCTIONS TO VISIBILITY

IDZ012-014-291700-
SOUTHWEST IDAHO


CITY           SKY/WX    TMP DP  RH WIND       PRES   REMARKS
BOISE          MOSUNNY   53  39  59 NW6       29.91S
CALDWELL       MOSUNNY   55  40  56 W12       29.92S
MOUNTAIN HOME  MOSUNNY   56  38  51 NW16      29.90S
$$

IDZ016-017-291700-
SOUTHCENTRAL IDAHO


CITY           SKY/WX    TMP DP  RH WIND       PRES   REMARKS
BURLEY         CLOUDY    46  40  79 W14       29.89S
JEROME         PTSUNNY   45  40  82 SW8       29.91S
TWIN FALLS     PTSUNNY   50  38  63 W15       29.90F
$$

IDZ019>023-291700-
SOUTHEAST IDAHO


CITY           SKY/WX    TMP DP  RH WIND       PRES   REMARKS
IDAHO FALLS    CLOUDY    48  32  53 S12       29.90F
POCATELLO      PTSUNNY   47  35  63 SW8       29.90S
REXBURG        CLOUDY    45  32  60 E5        29.90S
$$

IDZ006-010-011-018-031-032-291700-
CENTRAL IDAHO MOUNTAINS


CITY           SKY/WX    TMP DP  RH WIND       PRES   REMARKS
MCCALL         CLOUDY    38  35  89 S3        29.89S
HAILEY         CLOUDY    43  37  81 CALM      29.91S
STANLEY          N/A     38  32  79 E3        29.90S
SALMON         CLOUDY    39  34  81 CALM      29.91S
CHALLIS        CLOUDY    41  34  76 CALM      29.88F
$$

IDZ002-004-006-007-026-291700-
NORTHERN IDAHO


CITY           SKY/WX    TMP DP  RH WIND       PRES   REMARKS
LEWISTON       RAIN      48  46  93 S5        29.96R FOG
LOWELL           N/A     48  44  86 CALM      29.96R
COEUR D`ALENE  CLOUDY    48  36  61 E5        29.93R
MULLAN PASS    CLOUDY    34  26  72 CALM      29.90R
$$




USA.gov is the U.S. government's official web portal to all federal, state and local government web resources and services.